This is the latest recevied weather packets stored in our database for station/object N1ICS-1. If no packets are shown the sender has not sent any weather packets the latest 10 day(s).
| Time | Temp. | Humidity | Pressure | Rain* | Wind** | Luminosity | Snow |
|---|---|---|---|---|---|---|---|
| 1777894802 | 10.56° C | 80% | 1009 hPa | 0 mm | - | 104 W/m² | - |
| 1777894501 | 10° C | 80% | 1009 hPa | 0 mm | - | 90 W/m² | - |
| 1777894202 | 10° C | 81% | 1009.1 hPa | 0 mm | - | 58 W/m² | - |
| 1777893901 | 10° C | 81% | 1009 hPa | 0 mm | - | 48 W/m² | - |
| 1777893602 | 10° C | 82% | 1009.3 hPa | 0 mm | - | 44 W/m² | - |
| 1777893302 | 9.44° C | 82% | 1009.2 hPa | 0 mm | - | 40 W/m² | - |
| 1777893003 | 9.44° C | 83% | 1009.1 hPa | 0 mm | - | 35 W/m² | - |
| 1777892702 | 8.89° C | 84% | 1008.9 hPa | 0 mm | - | 31 W/m² | - |
| 1777892402 | 8.89° C | 84% | 1009.1 hPa | 0 mm | - | 26 W/m² | - |
| 1777892101 | 9.44° C | 82% | 1009.1 hPa | 0 mm | - | 22 W/m² | - |
| 1777891802 | 9.44° C | 82% | 1008.9 hPa | 0 mm | - | 17 W/m² | - |
| 1777891501 | 8.89° C | 83% | 1009 hPa | 0 mm | - | 12 W/m² | - |
| 1777891202 | 9.44° C | 82% | 1009 hPa | 0 mm | - | 8 W/m² | - |
| 1777890902 | 9.44° C | 81% | 1008.7 hPa | 0 mm | - | 5 W/m² | - |
| 1777890602 | 9.44° C | 81% | 1009 hPa | 0 mm | - | 3 W/m² | - |
| 1777890301 | 9.44° C | 82% | 1008.9 hPa | 0 mm | - | 2 W/m² | - |
| 1777890002 | 9.44° C | 81% | 1008.9 hPa | 0 mm | - | 1 W/m² | - |
| 1777889701 | 9.44° C | 82% | 1009 hPa | 0 mm | - | 0 W/m² | - |
| 1777889402 | 9.44° C | 81% | 1008.8 hPa | 0 mm | - | 0 W/m² | - |
| 1777889101 | 9.44° C | 81% | 1008.9 hPa | 0 mm | - | 0 W/m² | - |
| 1777888802 | 9.44° C | 80% | 1008.9 hPa | 0 mm | - | 0 W/m² | - |
| 1777888502 | 9.44° C | 81% | 1009.2 hPa | 0 mm | - | 0 W/m² | - |
| 1777888202 | 9.44° C | 82% | 1008.9 hPa | 0 mm | - | 0 W/m² | - |
| 1777887901 | 9.44° C | 82% | 1009.1 hPa | 0 mm | - | 0 W/m² | - |
| 1777887602 | 9.44° C | 81% | 1008.9 hPa | 0 mm | - | 0 W/m² | - |
* Rain latest hour (hover to see other rain measurements)
** Current wind speed in m/s (hover to see current wind gust speed)